JUGNU

Last updated on Wed Sep 17 2025 00:03:09 GMT+0000 (Coordinated Universal Time)

1 37839U 11058B 25259.17213625 .00000444 00000+0 92616-4 0 9994 2 37839 19.9599 173.0134 0018496 290.2028 221.1971 14.13637469720202
UTC large
Height (km)
Speed (km/s)
/
Latitude / Longitude
Inclination (degrees)
Orbital Period (minutes)
Azimuth
Elevation
Range (km)
Doppler Factor

Next 0 passes for location: London (51.5072 / 0.1276)

Sorry there are no passes over London.